GFSGBSN_925_temp_132.txt.gz
Temp
12 13 13 13 13 13 13 13 13 14 14 14 14 13 14 13 14 14 13 13 12 12 12 13 14 14 16 14 16 19 20 20 20 19 19 18 17 18 18 17 18 18 18 17 18 16 17
10 10 10 11 11 11 12 12 13 13 13 12 13 13 13 13 13 13 13 12 12 12 12 12 12 13 14 15 18 19 19 19 19 19 19 19 18 18 18 18 18 18 18 16 17 18 18
9 10 9 9 9 11 11 11 11 11 12 12 12 13 12 12 14 13 13 12 12 12 12 12 11 12 11 15 18 19 19 18 19 19 18 19 19 18 18 18 17 18 17 16 18 20 20
9 9 9 9 9 9 9 10 10 11 11 12 12 12 12 12 12 13 13 12 12 11 11 11 11 11 11 17 17 18 18 18 19 18 19 19 19 18 18 18 16 17 15 16 18 19 19
8 8 8 8 9 9 9 9 9 9 10 10 12 12 11 12 12 13 12 12 12 12 11 11 11 10 12 17 16 18 18 18 19 19 19 19 19 16 16 14 14 13 15 16 17 18 19
8 9 8 8 9 9 9 10 9 9 9 10 10 11 11 11 12 12 12 12 11 11 10 10 10 11 14 17 18 18 18 19 19 18 17 16 12 12 11 12 14 15 15 15 16 17 15
8 8 8 8 9 9 9 9 9 9 9 10 10 10 10 11 11 11 11 11 10 10 9 13 13 14 15 17 18 19 18 18 18 16 15 14 13 13 13 13 15 15 15 14 13 14 16
8 8 8 8 9 9 9 9 9 9 9 10 10 10 10 10 10 10 11 11 13 12 11 11 11 12 13 15 14 17 19 17 16 15 14 13 13 14 14 14 14 14 14 13 14 15 14
8 8 8 8 8 8 9 8 8 8 9 10 10 9 10 10 10 10 11 11 13 13 12 12 12 12 14 14 14 16 17 16 16 14 13 13 15 14 15 15 14 14 13 14 14 15 15
8 8 8 8 8 8 8 8 8 8 8 9 9 10 10 10 10 9 10 11 13 13 10 12 12 13 14 15 14 16 17 16 15 14 13 13 14 15 14 14 14 14 14 14 14 14 13
7 8 8 8 8 8 8 8 7 8 8 9 9 9 9 11 10 9 11 12 12 13 10 15 14 15 14 14 16 15 16 16 13 14 13 14 15 14 14 14 14 14 16 15 15 14 12
7 7 7 8 7 7 8 8 7 7 8 8 9 9 9 9 10 11 12 12 12 9 10 14 14 14 13 14 16 15 16 16 14 15 15 14 15 16 15 16 17 15 15 13 10 10 11
7 7 7 7 7 7 7 7 7 7 7 8 8 9 9 9 10 11 11 10 10 10 14 15 14 13 13 14 16 15 14 14 13 12 12 14 14 15 16 15 15 14 12 10 10 10 11
6 7 7 7 7 7 7 8 7 7 7 7 8 8 9 9 10 10 11 10 10 12 12 15 15 14 14 15 15 15 13 13 14 13 11 12 14 14 15 14 14 12 12 10 12 11 11
6 6 7 6 7 7 7 7 7 7 7 7 7 7 8 9 9 10 9 10 10 11 13 14 15 14 14 15 14 15 13 12 13 13 13 11 13 15 15 15 15 13 12 12 12 11 9
6 6 6 6 6 6 6 7 7 6 6 7 6 7 7 8 9 8 9 11 10 12 14 15 14 14 12 13 14 13 12 14 14 13 14 13 13 14 15 15 13 14 12 10 8 11 11
5 5 5 5 6 6 6 6 6 6 6 6 6 6 7 8 7 7 9 10 11 11 13 14 14 14 14 13 13 12 14 15 13 13 13 12 13 13 14 13 12 12 11 10 10 10 9
4 5 5 5 5 6 6 6 6 6 6 6 6 5 6 7 7 6 8 9 11 12 12 13 13 14 14 15 14 12 13 14 11 11 12 12 11 10 12 11 11 12 11 10 7 11 9
4 4 5 5 5 5 5 5 5 6 6 5 6 4 5 6 7 7 7 9 10 11 12 12 12 13 14 13 14 13 13 10 9 12 11 11 10 8 10 11 11 11 10 10 9 8 10
4 4 4 4 5 5 5 4 5 6 6 5 4 5 5 5 5 7 9 9 10 10 11 12 12 13 13 13 13 13 11 10 9 10 11 11 10 9 11 11 9 9 9 9 9 7 10
3 3 3 4 4 5 5 5 4 5 6 5 4 5 5 5 6 7 8 8 9 10 10 10 11 11 11 11 12 11 10 10 10 10 9 10 11 6 8 10 10 10 9 8 7 10 8
3 3 3 3 4 4 5 4 4 4 5 4 4 4 2 4 6 6 8 8 8 9 9 9 10 10 11 10 11 10 9 9 10 9 9 7 7 3 4 8 8 7 7 7 8 8 7
3 3 3 3 3 4 4 5 4 3 4 3 3 4 4 5 5 6 7 8 8 8 9 10 10 10 9 9 9 10 10 10 10 9 8 7 5 5 7 7 8 6 5 6 5 6 7
2 3 3 3 3 3 4 4 3 3 3 3 4 4 4 4 5 7 8 7 7 8 6 9 9 9 10 9 9 9 8 8 8 8 7 4 5 6 7 6 7 7 7 7 7 7 6
2 2 3 3 3 3 3 3 4 3 3 4 4 4 4 4 6 6 7 7 7 7 7 7 8 9 8 9 8 8 7 9 9 8 6 5 5 5 7 6 8 9 8 7 6 8 7
2 2 2 2 3 3 3 3 2 2 2 3 4 5 4 3 5 7 6 6 6 6 6 7 9 7 7 6 6 7 8 8 8 7 5 6 4 6 5 6 6 7 8 8 7 5 4
2 2 2 2 2 3 3 3 2 2 2 3 4 4 3 4 4 6 5 6 6 5 5 6 7 7 7 5 6 7 8 9 8 8 6 5 3 7 6 7 7 9 7 8 6 6 3
2 2 2 2 2 3 3 3 2 2 2 2 3 4 4 3 3 5 6 6 5 6 5 5 6 6 5 7 7 7 6 7 7 8 7 7 6 4 7 7 7 7 7 7 6 4 3
2 2 2 2 2 2 2 2 2 2 3 3 3 4 4 3 3 4 4 4 4 7 7 4 7 5 4 5 4 5 4 3 6 6 8 8 6 6 8 7 7 6 7 5 3 4 2

GFSGBSN_925_temp_135.txt.gz
Temp
13 13 13 13 13 13 13 13 13 13 13 13 13 13 13 13 13 13 13 13 13 13 13 12 13 13 16 16 18 19 20 20 20 20 19 19 19 19 20 19 19 20 19 19 20 19 19
10 10 10 11 12 13 13 13 13 13 13 13 13 13 12 12 12 13 13 13 13 13 13 12 12 12 14 15 18 19 19 19 19 19 18 19 19 18 19 18 19 18 19 19 19 20 19
9 9 10 9 10 10 10 11 12 12 12 13 13 13 12 13 12 13 13 13 12 12 13 12 13 12 12 16 18 18 18 18 19 19 18 19 18 19 18 19 18 18 19 19 20 20 21
9 9 9 9 9 9 10 10 10 10 11 11 11 12 12 13 12 13 13 12 12 12 12 11 13 11 13 16 17 17 17 18 18 18 18 18 19 18 18 18 17 18 18 20 20 20 19
9 9 8 8 8 9 9 9 9 9 10 10 10 10 11 11 12 12 12 12 12 12 11 11 12 11 14 16 16 17 17 18 18 18 18 18 18 16 17 18 18 16 19 18 19 18 19
9 8 8 8 8 9 9 9 9 9 9 9 10 9 10 10 11 11 12 11 11 11 10 10 10 12 15 17 17 17 17 18 18 17 17 17 15 16 15 17 19 17 17 16 17 19 18
8 8 9 8 9 9 9 9 9 9 9 9 10 9 9 10 10 11 11 11 11 11 10 14 14 14 15 16 16 18 17 18 17 17 17 15 17 17 16 15 16 16 16 16 16 17 17
8 9 8 8 8 9 9 9 9 9 9 9 10 10 10 10 10 10 10 11 11 12 13 12 12 12 13 14 15 17 18 18 17 17 15 16 16 17 15 15 16 15 15 16 16 16 16
9 9 9 8 8 8 8 8 9 9 9 9 10 10 9 10 10 10 10 12 12 12 12 13 13 13 15 14 15 17 17 16 16 15 15 16 17 15 16 15 15 15 15 15 16 16 16
8 8 8 8 8 8 8 8 9 8 8 8 9 9 9 10 10 10 10 11 12 13 12 13 13 14 14 15 14 16 18 17 16 16 14 15 15 15 15 16 16 15 16 16 15 16 17
7 8 8 8 8 8 8 8 8 8 8 8 9 9 9 10 10 9 11 11 12 13 13 15 13 14 14 15 15 15 15 16 16 15 16 16 15 14 14 15 16 16 15 16 16 16 15
7 7 7 8 8 8 8 8 8 8 8 8 8 9 9 9 10 11 12 11 13 12 12 14 14 14 13 14 15 15 15 16 15 15 15 15 15 16 17 16 16 16 16 14 13 14 15
7 7 7 7 7 7 8 8 8 8 7 8 8 8 9 9 10 11 11 11 11 11 14 14 14 13 13 13 14 15 14 14 14 13 14 14 15 16 16 16 15 15 15 15 15 14 15
6 7 7 7 7 7 7 7 7 8 8 7 8 8 8 9 10 10 11 10 10 12 12 14 14 13 14 14 15 14 14 14 14 14 13 14 15 15 15 16 16 14 15 15 14 14 16
6 6 7 7 7 6 7 7 7 7 8 7 7 7 8 8 10 9 9 10 12 11 13 14 14 14 14 14 15 15 14 14 14 14 16 14 15 15 15 15 16 13 14 14 15 12 13
5 5 6 7 7 7 6 7 7 7 7 7 6 6 7 8 9 8 9 11 11 12 13 14 15 14 14 14 14 14 13 14 15 14 15 14 15 14 14 15 13 14 14 14 13 13 13
4 5 5 6 7 7 7 6 6 7 7 6 6 6 8 8 7 7 9 11 11 12 12 13 14 14 14 13 14 13 14 14 14 13 14 13 15 13 14 14 15 14 13 12 13 13 13
3 4 5 5 6 6 6 6 6 6 7 6 6 6 6 7 7 6 8 10 12 12 12 13 13 14 14 13 13 13 14 14 11 12 14 13 13 13 14 12 12 13 14 14 14 14 12
3 4 4 5 6 6 6 6 5 6 6 5 5 5 5 6 7 7 8 9 11 11 12 12 12 13 14 14 13 13 13 10 10 12 12 12 13 13 13 13 12 12 12 12 11 11 13
3 3 4 4 5 6 6 6 5 5 6 6 4 5 5 5 6 9 8 9 9 10 11 12 12 13 13 13 13 12 12 10 10 10 11 12 11 12 14 14 12 11 11 11 12 12 13
2 2 2 4 4 5 5 5 5 5 5 6 4 5 5 5 6 7 9 9 10 10 11 11 11 12 12 12 12 12 11 11 10 11 10 12 12 8 10 11 11 11 11 11 10 12 12
2 2 2 2 3 4 5 5 5 5 4 5 3 4 3 5 7 7 8 8 9 10 10 10 10 11 11 11 12 11 10 10 11 10 10 8 9 6 6 10 10 9 9 10 9 10 9
3 3 2 3 3 3 4 4 5 5 3 2 3 4 6 5 6 6 7 8 9 10 9 10 10 10 10 10 10 10 11 11 11 10 9 9 7 8 11 9 10 9 9 8 10 9 10
3 3 3 3 3 3 3 4 4 4 4 1 4 4 5 5 6 7 8 8 8 8 7 9 10 9 10 9 9 9 9 9 10 9 9 6 8 8 9 8 9 11 8 10 9 10 9
3 3 3 3 3 3 3 4 4 4 4 2 4 5 4 5 6 6 7 7 8 7 7 8 8 9 9 9 9 9 8 9 8 8 7 7 8 8 9 9 10 12 10 9 8 11 10
2 2 3 2 2 3 3 3 3 4 4 2 2 6 4 6 5 7 7 7 7 7 6 7 7 7 8 7 8 8 9 9 9 7 6 7 7 10 7 8 9 11 10 9 9 9 9
2 2 2 2 2 3 3 3 3 3 3 2 2 5 4 4 4 6 6 6 6 6 7 7 8 8 7 7 8 8 9 9 9 9 7 7 6 8 9 9 10 11 9 9 9 10 6
2 2 2 2 2 2 3 3 3 3 3 1 2 4 5 3 4 5 5 6 6 7 6 6 7 6 6 8 9 9 8 9 9 9 8 9 8 8 9 8 8 9 8 9 10 6 6
2 2 2 2 2 2 3 3 3 2 2 0 1 3 5 3 3 4 4 4 4 4 6 5 7 6 7 8 7 7 7 7 9 10 8 10 10 9 9 10 9 9 10 8 7 7 5

GFSGBSN_925_temp_138.txt.gz
Temp
12 13 13 13 13 13 13 14 14 14 14 14 14 13 13 13 13 13 13 13 13 13 13 13 13 15 17 21 22 19 19 20 20 21 22 23 24 24 25 24 24 25 24 24 25 24 25
10 10 10 11 12 13 13 13 13 13 13 13 13 13 13 13 12 12 12 13 13 13 13 13 13 14 17 20 19 18 18 19 20 22 22 23 23 23 23 23 24 23 23 24 24 25 24
9 10 9 10 9 10 11 11 12 13 13 13 13 13 13 13 13 12 12 12 13 13 12 13 13 13 16 20 18 18 18 19 20 21 22 21 22 23 23 23 22 22 23 25 24 25 24
9 9 9 9 9 9 9 10 9 10 10 12 12 12 12 12 12 12 12 12 12 12 12 12 12 13 18 17 17 17 18 19 19 19 20 20 21 22 22 22 23 23 23 25 24 24 24
8 8 9 9 9 8 8 9 9 11 10 10 10 11 11 11 11 11 12 12 12 12 11 12 13 15 19 17 18 18 18 20 20 19 20 19 21 21 22 23 23 23 26 24 24 23 23
9 8 8 8 8 8 8 8 9 10 10 9 10 10 10 11 10 10 11 11 11 11 10 11 12 15 19 21 19 18 18 19 21 21 21 21 22 22 22 23 24 24 23 23 23 23 23
9 8 9 8 8 8 8 8 9 9 9 9 9 9 9 10 10 10 10 11 11 12 12 18 19 19 19 19 18 20 19 20 21 22 21 21 22 23 23 21 21 21 21 22 23 23 20
8 9 9 9 8 8 9 9 9 9 9 9 9 9 9 9 9 10 10 11 13 13 15 16 17 17 17 17 19 20 19 21 21 21 20 20 22 22 20 20 20 20 21 22 22 21 20
8 8 8 9 9 9 8 9 9 9 9 9 9 9 9 10 10 10 10 12 12 13 13 16 18 18 19 17 19 21 21 21 21 21 20 21 22 19 20 20 19 20 20 21 20 21 22
7 8 8 8 9 9 9 8 8 8 8 9 9 9 9 9 9 10 11 11 12 12 16 19 17 17 17 18 18 20 21 21 20 20 20 20 21 19 19 20 20 21 21 20 20 20 22
7 7 7 8 8 8 8 9 8 8 8 8 8 9 9 10 12 11 12 12 12 14 15 18 17 16 17 18 18 17 20 20 20 19 19 20 19 18 18 20 20 20 19 19 20 20 20
6 6 7 7 8 8 8 8 8 8 8 8 8 8 9 9 10 12 11 11 13 14 16 17 17 16 16 17 18 17 18 19 20 20 19 20 19 19 21 19 19 19 19 19 19 20 19
5 6 7 7 7 8 8 8 8 8 9 8 8 8 8 9 11 11 10 12 13 15 18 17 17 16 17 17 17 18 17 17 19 17 17 19 18 20 19 19 19 19 19 19 19 19 20
5 5 6 6 7 7 7 7 7 8 8 8 8 7 8 9 10 11 11 12 12 18 18 17 17 17 17 17 17 17 17 17 18 19 20 18 17 19 19 19 20 19 19 19 18 19 20
4 5 5 6 6 7 7 7 7 7 8 8 8 7 7 8 9 10 10 11 15 18 18 17 17 17 17 17 17 17 17 18 18 19 20 18 18 18 18 18 19 17 17 19 18 19 17
4 4 5 5 6 6 7 7 7 7 7 7 7 7 7 8 8 10 10 12 15 16 16 17 17 18 18 18 17 17 17 19 18 18 19 18 17 17 16 17 17 18 19 16 17 15 16
3 4 4 5 5 6 6 7 7 7 7 7 7 7 8 9 7 8 9 12 15 15 15 16 17 17 18 17 18 18 18 17 17 17 17 18 18 16 16 17 18 17 17 17 17 18 16
3 3 4 4 5 5 6 6 7 6 7 6 8 7 7 8 8 7 9 13 14 15 15 15 15 17 17 17 17 17 17 17 14 16 16 17 17 17 17 16 16 18 19 18 16 17 17
3 3 3 4 4 5 5 6 6 6 6 6 7 6 6 7 8 8 10 12 13 14 15 15 15 16 16 16 15 16 16 12 13 15 16 15 16 16 15 15 16 16 17 17 17 16 16
3 3 3 3 4 4 5 5 6 6 6 6 5 6 6 6 6 9 11 12 11 13 14 15 15 15 15 15 15 15 14 12 12 13 12 14 16 15 17 17 17 15 16 16 16 14 16
3 3 3 3 3 4 4 5 5 6 6 5 6 7 8 6 7 7 12 12 12 11 12 14 14 14 15 14 14 14 14 12 12 11 13 15 14 12 15 16 16 16 16 15 14 16 14
2 2 2 2 2 4 5 5 5 6 5 5 5 6 7 11 11 9 7 10 12 12 12 11 12 14 14 14 13 13 13 13 14 12 13 12 13 10 10 14 14 13 15 15 14 14 13
3 2 2 2 2 2 3 4 5 5 4 1 3 8 10 10 10 10 8 10 12 13 12 13 12 12 12 13 12 12 13 14 14 14 13 12 10 11 13 13 13 12 12 12 14 15 15
3 3 3 2 2 1 3 4 5 5 4 3 2 8 8 9 10 10 11 10 11 12 9 11 12 12 11 10 11 11 11 12 13 14 15 10 10 13 12 11 11 14 13 14 14 15 16
2 3 3 2 2 2 1 3 4 4 4 4 2 4 9 10 10 10 11 11 10 9 9 11 12 13 11 12 11 11 12 12 13 13 12 12 12 12 11 12 14 14 15 13 13 14 16
2 2 3 3 3 2 2 2 3 4 3 3 2 2 5 9 10 11 10 11 11 9 8 9 10 11 12 12 11 10 12 12 12 10 10 10 12 12 12 11 12 15 13 13 13 12 14
2 2 3 3 3 3 3 2 3 4 3 3 3 3 4 7 10 10 10 10 11 11 11 11 10 10 12 11 10 12 12 13 12 12 9 10 10 11 12 11 13 16 13 13 11 13 13
2 2 2 2 2 2 3 3 4 4 4 2 3 3 4 7 7 9 10 9 10 11 10 11 10 10 10 10 11 12 12 12 12 13 12 12 11 10 11 10 11 16 12 12 14 12 12
2 2 2 2 2 2 2 3 3 4 3 3 3 2 3 5 6 6 6 6 8 12 12 10 11 12 12 12 13 13 12 12 12 11 13 12 14 13 13 14 14 13 15 14 13 13 11

GFSGBSN_925_temp_141.txt.gz
Temp
11 12 13 13 13 13 14 14 14 14 14 14 14 14 14 13 13 13 12 12 13 13 13 14 14 14 17 23 25 21 21 21 22 24 25 27 27 28 28 28 28 28 28 28 28 27 28
9 10 10 11 12 13 13 13 13 13 13 13 14 14 14 14 13 13 13 13 13 13 13 13 14 14 19 21 23 21 21 22 23 24 25 26 27 27 27 27 27 27 27 28 28 28 28
9 9 10 10 10 10 11 12 13 13 13 13 13 14 13 13 13 13 13 13 13 12 12 12 13 14 19 21 22 22 21 22 23 24 25 24 25 26 26 26 26 27 26 28 28 28 27
9 9 9 9 9 9 9 9 10 10 10 11 12 13 13 12 12 12 13 13 13 12 12 12 13 14 19 21 21 21 22 22 22 22 23 23 24 25 25 26 26 26 27 27 29 27 27
9 9 8 8 9 9 9 9 10 10 10 10 10 11 11 12 12 12 12 12 13 12 12 12 14 17 20 19 21 22 22 23 23 22 23 22 24 25 25 25 27 27 27 28 27 27 27
9 9 9 8 8 8 8 8 9 10 9 9 10 10 10 10 10 11 11 11 12 11 11 12 15 18 20 23 22 22 22 22 23 23 23 23 25 25 26 27 26 27 27 28 27 27 25
9 9 9 9 9 8 8 8 9 9 10 10 9 9 10 10 10 10 10 11 11 12 12 19 20 22 23 22 21 22 22 22 23 23 23 24 24 25 27 26 25 25 25 26 28 27 24
8 8 8 8 9 9 8 8 8 9 9 9 9 9 9 9 9 9 10 11 12 12 14 19 19 21 22 21 20 23 22 23 23 23 24 24 23 26 25 24 24 24 24 25 27 26 24
7 8 8 8 8 9 9 9 8 9 9 8 9 9 9 9 9 9 10 12 12 13 14 18 21 21 22 21 20 22 23 23 23 23 24 23 26 23 23 23 23 24 24 25 25 25 25
7 7 8 8 8 8 9 9 8 8 8 8 8 9 9 9 9 11 11 12 12 13 14 20 20 21 22 22 20 22 23 23 23 23 24 24 25 24 23 23 24 23 26 24 23 23 24
6 6 7 7 8 8 8 8 9 8 8 8 9 9 9 9 14 12 13 13 13 14 14 22 21 19 21 21 22 22 23 24 22 23 23 23 22 22 22 23 24 23 23 23 23 23 23
6 6 6 6 7 7 8 8 8 8 8 8 8 9 9 9 10 13 13 13 14 12 13 20 20 19 19 20 21 21 21 23 23 22 22 23 24 23 23 23 23 23 22 22 22 23 21
5 5 5 6 6 7 7 8 8 8 8 8 8 8 8 9 12 13 13 13 13 14 20 20 20 20 20 20 20 20 20 19 20 19 20 22 22 22 22 21 22 22 22 21 21 21 21
5 5 5 5 6 6 7 7 8 8 8 8 8 8 8 8 11 12 11 12 12 18 19 21 20 20 20 21 20 20 20 20 21 22 23 21 20 22 22 22 21 21 22 21 20 22 23
5 5 5 5 5 6 6 7 7 7 8 8 8 8 7 8 9 10 10 11 14 17 21 21 20 19 20 21 21 20 20 21 22 22 21 22 22 23 22 22 22 21 20 22 20 21 20
4 4 4 4 4 5 6 7 7 7 7 8 8 8 9 9 9 8 10 12 16 19 20 21 19 20 20 20 19 19 20 21 21 21 22 21 19 21 20 20 21 20 22 18 19 17 18
4 4 4 4 4 5 6 6 6 7 7 7 8 8 10 9 8 8 9 12 16 19 18 18 19 19 20 21 20 20 21 20 21 21 21 21 20 18 18 19 20 18 19 19 20 20 18
3 3 4 4 4 4 5 6 6 6 7 6 7 8 10 8 7 8 9 13 15 17 17 17 17 19 20 20 20 20 20 21 19 20 18 20 19 17 18 20 21 21 20 20 17 18 19
3 3 3 3 3 4 5 5 6 6 6 5 6 10 7 9 8 8 10 12 15 16 17 17 17 18 19 18 18 19 20 15 15 18 18 18 18 18 18 18 19 18 20 20 20 19 17
3 3 3 3 3 4 4 5 5 5 6 5 6 7 7 6 10 10 12 13 13 15 15 16 17 18 18 18 19 18 17 14 14 16 12 17 18 17 17 16 18 17 19 19 19 16 17
3 3 3 3 3 3 4 4 5 5 5 5 5 8 9 7 7 9 12 14 14 13 15 15 14 15 16 16 17 17 16 14 14 12 15 16 16 14 16 18 17 17 18 18 17 18 17
3 3 3 3 3 3 3 4 5 5 5 5 3 8 11 12 11 8 10 10 13 15 14 15 15 16 15 14 16 14 14 12 12 13 15 15 14 11 11 16 17 16 17 18 17 17 16
3 3 2 3 3 3 3 3 4 4 5 4 2 6 12 12 12 11 9 12 13 16 16 16 15 15 14 15 14 12 12 13 12 11 13 14 12 11 11 16 16 14 14 15 16 18 17
3 3 3 3 2 2 2 3 4 5 5 2 4 7 8 11 13 12 13 12 13 14 11 14 15 13 13 13 11 11 11 12 12 14 14 13 11 14 14 14 12 16 17 18 17 17 18
2 3 3 3 2 2 2 2 3 4 5 4 5 7 7 9 14 13 13 14 13 13 11 13 13 12 12 12 10 9 9 9 12 14 14 13 14 14 12 14 15 17 18 16 15 16 18
2 3 3 3 2 2 2 2 3 3 5 4 5 6 7 8 10 14 13 13 13 12 12 13 13 12 12 11 9 9 10 12 13 14 15 14 14 13 14 13 13 17 17 18 16 13 18
2 2 2 2 2 2 2 2 2 2 4 3 3 5 5 6 10 12 11 13 14 12 11 11 11 11 12 12 10 11 12 15 13 14 11 11 12 12 13 13 15 18 17 16 13 15 16
2 2 2 2 2 3 2 1 2 3 2 4 3 4 6 8 8 11 13 12 13 14 11 11 9 9 11 10 11 12 13 14 15 15 14 13 12 12 13 13 13 18 16 14 16 16 16
2 2 2 2 2 2 2 1 0 3 2 3 3 3 4 6 5 9 10 9 10 12 12 13 11 13 11 12 14 15 14 14 14 12 16 14 15 15 15 15 17 18 17 16 16 16 15

GFSGBSN_925_temp_147.txt.gz
Temp
10 11 12 13 13 13 13 13 13 13 13 13 14 14 14 14 14 14 14 14 14 14 14 14 14 15 16 18 20 23 23 23 23 23 23 24 24 24 23 24 26 27 26 27 26 26 27
10 9 10 10 10 11 13 13 13 13 13 13 13 13 13 13 13 13 14 14 14 14 14 14 14 14 15 16 22 23 23 23 23 24 25 25 24 24 24 24 24 25 25 25 26 25 26
10 9 9 9 10 10 10 10 11 12 12 12 13 13 13 13 13 13 13 14 14 14 14 14 14 13 14 16 22 23 22 23 23 24 24 25 25 22 22 23 25 26 24 23 24 25 25
9 9 9 9 9 9 9 9 9 9 10 10 11 11 12 13 12 12 13 13 12 13 13 14 14 12 14 19 21 21 22 23 23 24 24 24 25 23 23 23 24 24 23 21 23 24 24
9 8 8 8 8 8 9 8 9 9 9 9 10 10 10 10 10 11 12 12 12 13 13 13 13 13 15 19 20 22 22 23 23 24 24 24 24 22 22 21 20 21 20 21 23 25 23
9 9 8 8 8 8 8 8 8 8 9 9 9 9 10 9 10 10 10 11 12 12 12 13 13 14 16 19 22 22 23 23 23 23 22 22 20 19 19 19 18 20 21 21 22 24 23
8 9 8 8 8 8 8 8 8 8 8 8 9 9 9 9 10 9 10 10 11 11 11 15 16 17 21 22 22 23 23 23 22 21 19 20 18 17 18 20 22 23 24 23 24 25 24
8 8 8 8 8 8 8 8 8 8 7 7 8 9 9 9 9 10 10 10 9 9 11 14 14 16 18 20 20 22 23 21 20 20 20 19 19 21 22 23 24 24 23 22 23 24 23
7 8 8 8 8 8 8 8 8 8 8 8 8 8 9 9 9 9 10 10 11 10 10 13 15 17 17 18 18 20 22 21 21 20 20 19 21 23 23 23 23 22 22 22 22 23 24
6 7 7 8 8 8 8 8 8 8 8 8 8 8 9 8 8 9 9 10 10 11 11 14 15 17 18 19 19 21 22 22 21 20 21 20 22 23 23 23 23 21 23 24 23 22 19
6 6 6 7 7 7 8 8 8 8 8 8 8 8 9 8 10 9 11 10 10 11 12 19 19 21 20 19 21 21 22 22 20 21 21 20 22 22 22 22 23 22 23 23 22 21 21
6 6 6 6 6 7 7 7 7 8 8 8 8 8 8 8 8 10 10 10 10 11 12 18 20 20 19 18 20 22 21 22 22 20 21 21 22 22 22 24 23 24 22 22 21 19 16
5 6 5 6 6 6 7 7 7 7 8 8 8 8 8 8 9 10 9 9 9 11 17 19 20 21 20 19 19 20 20 20 19 18 18 20 21 22 23 22 22 22 19 15 15 16 16
5 5 5 5 5 5 6 6 7 7 7 8 8 8 8 8 9 9 9 9 11 14 16 20 21 21 19 20 20 20 20 18 19 19 19 18 18 21 23 20 20 19 18 14 17 16 17
5 5 5 5 5 5 5 5 6 6 7 7 7 7 7 8 9 8 9 10 11 15 17 17 16 17 19 20 20 20 19 18 19 20 18 18 19 22 22 21 21 19 18 19 18 17 16
5 5 4 4 4 4 5 5 5 6 6 7 6 6 7 8 8 7 8 10 11 15 18 18 14 15 17 19 19 19 19 19 19 20 20 18 16 21 21 21 21 20 21 17 15 16 16
4 4 4 4 4 4 4 4 5 5 5 6 6 6 8 8 8 7 8 9 11 15 16 16 15 15 16 17 18 16 19 20 20 20 20 19 18 17 19 19 19 18 18 18 16 15 14
4 4 4 4 4 4 4 4 4 4 5 5 5 6 8 8 7 6 7 9 12 14 16 16 17 17 16 17 17 16 16 17 16 16 19 18 16 15 17 19 20 19 18 16 12 16 15
3 3 3 3 3 3 4 4 4 4 4 5 5 3 8 8 7 6 9 10 11 13 13 15 14 15 16 15 15 17 17 15 16 15 16 17 14 14 17 16 19 18 19 18 16 15 15
3 3 3 3 3 3 3 3 4 4 4 4 2 5 5 7 8 8 9 9 10 12 12 14 14 14 13 13 15 16 13 14 14 15 14 15 16 14 15 15 15 16 17 18 16 13 14
3 3 3 3 3 3 3 3 3 3 3 4 2 4 6 7 7 8 9 10 10 10 13 13 13 13 12 12 14 15 13 13 14 13 15 15 14 11 14 17 17 16 16 16 15 15 14
3 3 3 3 3 3 3 3 3 3 3 3 3 4 4 6 7 7 9 9 11 11 12 12 12 14 13 12 12 12 12 12 13 14 14 14 12 10 10 15 16 15 14 15 14 15 14
3 3 3 3 3 3 3 3 3 3 3 4 2 2 4 7 7 7 7 10 10 11 12 14 13 12 12 13 12 13 11 11 11 12 11 11 9 9 11 15 13 11 12 12 14 14 15
3 2 2 3 3 3 3 3 3 3 3 3 1 2 4 6 7 7 9 10 10 11 10 12 12 13 14 12 10 10 10 11 10 10 11 9 9 9 9 13 11 13 14 14 14 15 16
3 3 2 2 3 3 3 3 3 3 3 3 2 3 3 5 8 6 7 10 10 11 11 11 13 10 11 11 8 8 9 9 9 11 10 10 9 8 10 11 12 14 15 14 13 13 15
3 3 2 2 2 3 3 3 3 3 3 3 3 3 4 4 6 8 8 8 9 9 9 11 8 9 9 9 8 9 9 9 9 10 11 10 10 10 10 10 10 11 16 16 15 12 15
3 3 2 2 2 2 2 3 3 2 3 3 3 3 4 3 5 6 6 6 10 9 9 10 8 8 8 7 9 9 9 11 10 10 10 10 9 10 9 10 10 14 17 16 11 10 14
3 3 2 2 2 2 2 3 3 2 3 2 3 4 3 3 5 6 7 7 7 8 8 8 7 7 7 8 8 9 8 9 9 12 10 10 10 10 10 10 10 15 16 13 11 13 12
3 3 2 2 2 2 3 3 3 2 2 2 3 3 3 4 4 5 7 8 8 7 7 8 8 8 7 7 7 9 8 9 9 9 12 9 9 9 10 9 11 15 14 14 12 12 13